Showing default

MIDAS 4, 192

Orbit data source: Space-Track

MIDAS 4, 192 is a payload satellite owned by USAF SSD (US) in LEO that was launched on Sat, 21 Oct 1961 UTC via an ATLAS AGENA B launch vehicle from the Air Force Western Test Range (AFWTR). Payload-class satellites include a variety of spacecraft equipped with specific instruments for various scientific and technological missions. These include communications satellites like Starlink; space stations such as the ISS; scientific satellites like the Hubble; Earth observation satellites from companies like Planet Labs, Umbra, and HawkEye 360; GPS; miniature CubeSats for education and research; and military/defense satellites.

Loading next visibility...
Identifier
192, 1961-028A
Orbit
LEO
Country
Flag of USUS
Related business
Manufacturer
LMSC
Mission
Spacecraft
Bus & Motor
MIDAS, Unknown motor
Mass
~1,540 kg wet, 840 kg dry
Launch date (UTC)
1961-10-21 (64 years ago)
Launch vehicle
ATLAS AGENA B
Launch site
Air Force Western Test Range (AFWTR)
Object type
Payload
Rocket body
Debris
Shape & HBR
Unknown
Radar Cross Section
Large (>1 m²)

Expand to show TLE details & history
Last TLE update: 1 day ago

TLE from 1 day ago
0 MIDAS 4
1 00192U 61028A   25310.54365783 -.00000004  00000-0 -18469-3 0  9998
2 00192  95.8303 176.8641 0135483 185.7558 174.1738  8.67769118 28844
Epoch: 2025-11-06T13:02Z
TLE epoch observation values (Epoch: 2025-11-06T13:02:52.036Z)
Latitude
-0.00006°
Longitude
-64.85317°
Altitude
3,761.924 km
Speed
6.228 km/s
True Right ascension
11h 47m 27s
True Declination
0° 00' 00"
Sunlit
Object was in daylight at epoch
Visualization orbit readout
Latitude
Unknown
Longitude
Unknown
Altitude
Unknown
Speed
Unknown
Apparent Right ascension
Unknown
Apparent Declination
Unknown
Sunlit
N/A
Visualization observer readout
Local Sidereal Time
09:10:14
Azimuth
Unknown
Elevation
Unknown
Doppler factor
Unknown
Orbital elements
Apogee altitude
3,758.28 km
Perigee altitude
3,487.289 km
Semi-major axis
10,000.921 km
Eccentricity
0.01355
Inclination
95.8303°
RAAN
176.8641°
Arg. of periapsis
185.7558°
True anomaly
174.32879°
Mean anomaly
174.1738°
Eccentric anomaly
174.25155°
Mean motion
2.17012 °/min
Orbital period
165.89 mins
BSTAR
-0.00018469
Loading maneuver chart data...
Computing Atmospheric mass density...
Loading historical data...
Loading historical data...
Loading historical data...
Loading historical data...
Loading historical data...
Loading historical data...
Loading historical data...

Documentation

Showing up to 5 results
|